| time (UTC) | temp F | wind direction | speed MPH | gust MPH | rain 1hr in | rain 24hr in | rain mn in | humidity % | barometer mb |
| 20260506001533 | 62 | 226 | 0.0 | 1.0 | 0.00 | 0.07 | 0.07 | 47 | 1010.4 |
| 20260506001031 | 62 | 217 | 0.0 | 1.0 | 0.00 | 0.07 | 0.07 | 47 | 1010.3 |
| 20260506000536 | 64 | 270 | 1.0 | 3.0 | 0.00 | 0.07 | 0.07 | 45 | 1010.3 |
| 20260506000530 | 62 | 217 | 0.0 | 1.0 | 0.00 | 0.07 | 0.07 | 47 | 1010.0 |
| 20260506000031 | 62 | 219 | 1.0 | 3.0 | 0.00 | 0.07 | 0.07 | 46 | 1010.2 |
| 20260505235527 | 63 | 201 | 1.0 | 3.0 | 0.00 | 0.07 | 0.07 | 46 | 1010.3 |
| 20260505235150 | 64 | 181 | 1.0 | 3.0 | 0.00 | 0.07 | 0.07 | 45 | 1010.2 |
| 20260505234029 | 64 | 251 | 1.0 | 3.0 | 0.00 | 0.07 | 0.07 | 46 | 1010.3 |
| 20260505233533 | 63 | 229 | 1.0 | 4.0 | 0.00 | 0.07 | 0.07 | 47 | 1010.3 |
| 20260505233526 | 64 | 257 | 0.0 | 4.0 | 0.00 | 0.07 | 0.07 | 46 | 1010.3 |
| 20260505232528 | 63 | 74 | 0.0 | 2.0 | 0.00 | 0.07 | 0.07 | 47 | 1010.3 |
| 20260505232027 | 62 | 120 | 0.0 | 2.0 | 0.00 | 0.07 | 0.07 | 47 | 1010.4 |
| 20260505231525 | 62 | 150 | 1.0 | 4.0 | 0.00 | 0.07 | 0.07 | 49 | 1010.5 |
| 20260505231026 | 61 | 310 | 2.0 | 6.0 | 0.00 | 0.07 | 0.07 | 49 | 1010.6 |
| 20260505230526 | 61 | 275 | 2.0 | 6.0 | 0.00 | 0.07 | 0.07 | 49 | 1010.9 |
| 20260505230028 | 62 | 309 | 2.0 | 5.0 | 0.00 | 0.07 | 0.07 | 48 | 1010.7 |
| 20260505225526 | 61 | 273 | 2.0 | 6.0 | 0.00 | 0.07 | 0.07 | 48 | 1010.7 |
| 20260505225025 | 62 | 272 | 2.0 | 7.0 | 0.00 | 0.07 | 0.07 | 48 | 1010.7 |
| 20260505224532 | 62 | 169 | 0.0 | 3.0 | 0.04 | 0.07 | 0.07 | 50 | 1010.7 |
| 20260505224526 | 62 | 309 | 1.0 | 7.0 | 0.02 | 0.07 | 0.07 | 48 | 1010.7 |
| 20260505223525 | 61 | 140 | 1.0 | 4.0 | 0.04 | 0.07 | 0.07 | 52 | 1010.7 |
| 20260505223023 | 61 | 305 | 0.0 | 4.0 | 0.04 | 0.07 | 0.07 | 50 | 1010.9 |
| 20260505222532 | 60 | 184 | 1.0 | 3.0 | 0.04 | 0.07 | 0.07 | 59 | 1011.2 |
| 20260505222524 | 60 | 303 | 0.0 | 3.0 | 0.04 | 0.07 | 0.07 | 57 | 1011.0 |
| 20260505221523 | 58 | 233 | 0.0 | 3.0 | 0.04 | 0.07 | 0.07 | 64 | 1011.3 |
| 20260505221021 | 57 | 292 | 0.0 | 2.0 | 0.04 | 0.07 | 0.07 | 69 | 1011.6 |
| 20260505220522 | 56 | 214 | 1.0 | 6.0 | 0.04 | 0.07 | 0.07 | 71 | 1011.6 |
| 20260505220021 | 56 | 296 | 2.0 | 6.0 | 0.04 | 0.07 | 0.07 | 67 | 1011.8 |
| 20260505215521 | 56 | 177 | 2.0 | 6.0 | 0.04 | 0.07 | 0.07 | 71 | 1012.3 |
| 20260505215028 | 58 | 347 | 2.0 | 9.0 | 0.02 | 0.05 | 0.06 | 61 | 1012.0 |
| 20260505215021 | 56 | 142 | 3.0 | 9.0 | 0.04 | 0.07 | 0.07 | 67 | 1012.1 |
| 20260505214520 | 61 | 294 | 0.0 | 3.0 | 0.00 | 0.03 | 0.03 | 53 | 1011.8 |
| 20260505213520 | 62 | 248 | 0.0 | 2.0 | 0.00 | 0.03 | 0.03 | 50 | 1011.8 |
| 20260505213020 | 62 | 137 | 0.0 | 2.0 | 0.00 | 0.03 | 0.03 | 47 | 1011.7 |
| 20260505212518 | 63 | 224 | 0.0 | 2.0 | 0.00 | 0.03 | 0.03 | 46 | 1011.7 |
| 20260505212018 | 63 | 126 | 0.0 | 3.0 | 0.00 | 0.03 | 0.03 | 46 | 1011.7 |
| 20260505211518 | 62 | 221 | 1.0 | 3.0 | 0.00 | 0.03 | 0.03 | 46 | 1011.6 |
| 20260505211019 | 63 | 257 | 1.0 | 5.0 | 0.00 | 0.03 | 0.03 | 47 | 1011.7 |
| 20260505210516 | 63 | 303 | 1.0 | 5.0 | 0.00 | 0.03 | 0.03 | 46 | 1011.7 |
| 20260505210022 | 63 | 271 | 1.0 | 5.0 | 0.00 | 0.03 | 0.03 | 47 | 1011.7 |
| 20260505210016 | 63 | 348 | 1.0 | 5.0 | 0.00 | 0.03 | 0.03 | 47 | 1011.8 |
| 20260505205016 | 64 | 277 | 2.0 | 5.0 | 0.00 | 0.03 | 0.03 | 46 | 1011.8 |
| 20260505204515 | 64 | 162 | 2.0 | 5.0 | 0.00 | 0.03 | 0.03 | 45 | 1011.8 |
| 20260505204017 | 64 | 124 | 2.0 | 5.0 | 0.00 | 0.03 | 0.03 | 46 | 1011.8 |
| 20260505203515 | 65 | 153 | 1.0 | 5.0 | 0.00 | 0.03 | 0.03 | 45 | 1011.9 |
| 20260505203016 | 64 | 217 | 2.0 | 6.0 | 0.00 | 0.03 | 0.03 | 47 | 1012.1 |
| 20260505202518 | 63 | 323 | 2.0 | 6.0 | 0.00 | 0.03 | 0.03 | 49 | 1012.3 |
| 20260505202511 | 63 | 302 | 2.0 | 8.0 | 0.00 | 0.03 | 0.03 | 50 | 1012.3 |
| 20260505201509 | 62 | 75 | 2.0 | 8.0 | 0.00 | 0.03 | 0.03 | 51 | 1012.0 |
| 20260505201015 | 62 | 321 | 1.0 | 6.0 | 0.00 | 0.03 | 0.03 | 53 | 1012.0 |
| 20260505201009 | 63 | 44 | 2.0 | 6.0 | 0.00 | 0.03 | 0.03 | 51 | 1012.0 |
| 20260505200009 | 63 | 268 | 1.0 | 6.0 | 0.00 | 0.03 | 0.03 | 52 | 1012.1 |
| 20260505195510 | 62 | 273 | 1.0 | 5.0 | 0.00 | 0.03 | 0.03 | 54 | 1012.1 |
| 20260505195006 | 61 | 146 | 1.0 | 5.0 | 0.00 | 0.03 | 0.03 | 56 | 1012.3 |
| 20260505194506 | 60 | 295 | 1.0 | 5.0 | 0.00 | 0.03 | 0.03 | 57 | 1012.5 |
| 20260505194006 | 60 | 281 | 1.0 | 5.0 | 0.01 | 0.03 | 0.03 | 59 | 1012.6 |
| 20260505193509 | 59 | 314 | 2.0 | 7.0 | 0.01 | 0.03 | 0.03 | 63 | 1012.6 |
| 20260505193503 | 59 | 136 | 1.0 | 4.0 | 0.01 | 0.03 | 0.03 | 62 | 1012.6 |
| 20260505192500 | 59 | 293 | 2.0 | 7.0 | 0.01 | 0.03 | 0.03 | 59 | 1012.7 |
| 20260505191958 | 59 | 291 | 1.0 | 5.0 | 0.02 | 0.03 | 0.03 | 58 | 1012.7 |
| 20260505191457 | 59 | 359 | 1.0 | 5.0 | 0.02 | 0.03 | 0.03 | 60 | 1012.8 |
| 20260505190958 | 59 | 286 | 1.0 | 4.0 | 0.02 | 0.03 | 0.03 | 61 | 1013.0 |
| 20260505190456 | 58 | 319 | 1.0 | 4.0 | 0.02 | 0.03 | 0.03 | 67 | 1013.0 |
| 20260505190005 | 55 | 311 | 1.0 | 5.0 | 0.02 | 0.03 | 0.03 | 72 | 1013.0 |
| 20260505185957 | 57 | 284 | 1.0 | 5.0 | 0.02 | 0.03 | 0.03 | 72 | 1013.0 |
| 20260505185456 | 54 | 332 | 1.0 | 4.0 | 0.02 | 0.03 | 0.03 | 73 | 1013.0 |
| 20260505184454 | 54 | 312 | 2.0 | 5.0 | 0.02 | 0.03 | 0.03 | 69 | 1013.1 |
| 20260505183956 | 55 | 300 | 1.0 | 5.0 | 0.01 | 0.02 | 0.02 | 67 | 1013.1 |
| 20260505183504 | 56 | 275 | 1.0 | 4.0 | 0.01 | 0.02 | 0.02 | 62 | 1013.1 |
| 20260505183456 | 56 | 283 | 1.0 | 4.0 | 0.01 | 0.02 | 0.02 | 65 | 1013.1 |
| 20260505182456 | 58 | 269 | 0.0 | 3.0 | 0.01 | 0.02 | 0.02 | 60 | 1013.0 |
| 20260505181955 | 59 | 311 | 0.0 | 3.0 | 0.00 | 0.01 | 0.01 | 59 | 1012.8 |
| 20260505181454 | 60 | 240 | 0.0 | 2.0 | 0.00 | 0.01 | 0.01 | 53 | 1013.0 |
| 20260505180953 | 60 | 181 | 1.0 | 5.0 | 0.00 | 0.01 | 0.01 | 50 | 1013.0 |
| 20260505180454 | 62 | 211 | 1.0 | 5.0 | 0.00 | 0.01 | 0.01 | 50 | 1013.0 |
| 20260505175954 | 62 | 221 | 1.0 | 5.0 | 0.00 | 0.01 | 0.01 | 50 | 1012.8 |
| 20260505175452 | 62 | 134 | 1.0 | 5.0 | 0.00 | 0.01 | 0.01 | 47 | 1012.8 |
| 20260505174956 | 62 | 203 | 1.0 | 5.0 | 0.00 | 0.01 | 0.01 | 45 | 1012.8 |
| 20260505174453 | 61 | 150 | 1.0 | 5.0 | 0.00 | 0.01 | 0.01 | 45 | 1012.7 |
| 20260505173954 | 61 | 69 | 1.0 | 4.0 | 0.00 | 0.01 | 0.01 | 45 | 1012.7 |
| 20260505173451 | 61 | 71 | 1.0 | 4.0 | 0.00 | 0.01 | 0.01 | 45 | 1012.7 |
| 20260505172951 | 61 | 68 | 1.0 | 5.0 | 0.00 | 0.01 | 0.01 | 45 | 1012.7 |
| 20260505172452 | 61 | 297 | 1.0 | 5.0 | 0.00 | 0.01 | 0.01 | 45 | 1012.7 |
| 20260505171949 | 61 | 328 | 1.0 | 5.0 | 0.00 | 0.01 | 0.01 | 46 | 1012.8 |
| 20260505171449 | 61 | 323 | 1.0 | 4.0 | 0.00 | 0.01 | 0.01 | 46 | 1012.8 |
| 20260505171116 | 59 | 292 | 1.0 | 5.0 | 0.00 | 0.01 | 0.01 | 51 | 1013.1 |
| 20260505170955 | 60 | 315 | 1.0 | 3.0 | 0.00 | 0.01 | 0.01 | 48 | 1012.8 |
| 20260505170949 | 60 | 281 | 1.0 | 4.0 | 0.00 | 0.01 | 0.01 | 47 | 1012.8 |
| 20260505165449 | 58 | 349 | 1.0 | 5.0 | 0.00 | 0.01 | 0.01 | 51 | 1013.2 |
| 20260505164951 | 58 | 319 | 1.0 | 4.0 | 0.00 | 0.01 | 0.01 | 51 | 1013.1 |
| 20260505164450 | 57 | 77 | 1.0 | 4.0 | 0.00 | 0.01 | 0.01 | 54 | 1013.0 |
| 20260505163950 | 56 | 304 | 1.0 | 4.0 | 0.00 | 0.01 | 0.01 | 54 | 1012.8 |
| 20260505163448 | 56 | 301 | 1.0 | 5.0 | 0.00 | 0.01 | 0.01 | 55 | 1013.1 |
| 20260505162948 | 56 | 66 | 1.0 | 6.0 | 0.00 | 0.01 | 0.01 | 55 | 1013.2 |
| 20260505162456 | 55 | 326 | 2.0 | 6.0 | 0.00 | 0.01 | 0.01 | 58 | 1013.1 |
| 20260505162450 | 56 | 60 | 1.0 | 6.0 | 0.00 | 0.01 | 0.01 | 59 | 1013.2 |
| 20260505161449 | 54 | 316 | 2.0 | 7.0 | 0.00 | 0.01 | 0.01 | 58 | 1013.2 |
| 20260505160948 | 54 | 340 | 2.0 | 7.0 | 0.00 | 0.01 | 0.01 | 59 | 1013.4 |
| 20260505160449 | 54 | 77 | 2.0 | 7.0 | 0.00 | 0.01 | 0.01 | 59 | 1013.4 |
| 20260505152949 | 54 | 312 | 2.0 | 7.0 | 0.01 | 0.01 | 0.01 | 64 | 1013.7 |
| 20260505152446 | 54 | 334 | 2.0 | 8.0 | 0.01 | 0.01 | 0.01 | 63 | 1013.7 |
| 20260505151949 | 54 | 341 | 2.0 | 8.0 | 0.01 | 0.01 | 0.01 | 63 | 1013.7 |
| 20260505151448 | 54 | 303 | 2.0 | 5.0 | 0.01 | 0.01 | 0.01 | 65 | 1013.7 |
| 20260505150948 | 54 | 36 | 2.0 | 5.0 | 0.01 | 0.01 | 0.01 | 67 | 1013.7 |
| 20260505150446 | 53 | 13 | 1.0 | 6.0 | 0.01 | 0.01 | 0.01 | 67 | 1013.7 |
| 20260505124930 | 58 | 317 | 1.0 | 4.0 | 0.00 | 0.00 | 0.00 | 46 | 1012.5 |
| 20260505124429 | 58 | 304 | 1.0 | 4.0 | 0.00 | 0.00 | 0.00 | 45 | 1012.4 |
| 20260505123928 | 59 | 304 | 1.0 | 2.0 | 0.00 | 0.00 | 0.00 | 45 | 1012.5 |
| 20260505123432 | 59 | 325 | 1.0 | 3.0 | 0.00 | 0.00 | 0.00 | 43 | 1012.6 |
| 20260505123427 | 59 | 296 | 1.0 | 3.0 | 0.00 | 0.00 | 0.00 | 44 | 1012.6 |
| 20260505123051 | 59 | 323 | 1.0 | 3.0 | 0.00 | 0.00 | 0.00 | 43 | 1012.6 |
| 20260505121934 | 59 | 293 | 0.0 | 4.0 | 0.00 | 0.00 | 0.00 | 43 | 1012.7 |
| 20260505121927 | 59 | 306 | 0.0 | 3.0 | 0.00 | 0.00 | 0.00 | 43 | 1012.6 |
| 20260505120932 | 59 | 302 | 1.0 | 6.0 | 0.00 | 0.00 | 0.00 | 43 | 1012.6 |
| 20260505120927 | 59 | 323 | 0.0 | 4.0 | 0.00 | 0.00 | 0.00 | 43 | 1012.7 |
| 20260505120550 | 59 | 250 | 1.0 | 6.0 | 0.00 | 0.00 | 0.00 | 43 | 1012.5 |
| 20260505115430 | 58 | 308 | 0.0 | 4.0 | 0.00 | 0.00 | 0.00 | 43 | 1012.4 |
| 20260505115425 | 59 | 302 | 0.0 | 4.0 | 0.00 | 0.00 | 0.00 | 43 | 1012.4 |
| 20260505114424 | 58 | 75 | 0.0 | 0.0 | 0.00 | 0.00 | 0.00 | 43 | 1012.4 |
| 20260505113924 | 59 | 75 | 0.0 | 1.0 | 0.00 | 0.00 | 0.00 | 43 | 1012.3 |
| 20260505113424 | 59 | 75 | 0.0 | 1.0 | 0.00 | 0.00 | 0.00 | 42 | 1012.1 |
| 20260505112928 | 59 | 78 | 0.0 | 2.0 | 0.00 | 0.00 | 0.00 | 41 | 1012.3 |
| 20260505112923 | 59 | 78 | 0.0 | 2.0 | 0.00 | 0.00 | 0.00 | 41 | 1012.3 |
| 20260505112546 | 59 | 79 | 1.0 | 3.0 | 0.00 | 0.00 | 0.00 | 40 | 1012.1 |
| 20260505111921 | 59 | 79 | 1.0 | 3.0 | 0.00 | 0.00 | 0.00 | 40 | 1012.1 |
| 20260505110923 | 59 | 328 | 0.0 | 1.0 | 0.00 | 0.00 | 0.00 | 39 | 1012.1 |
| 20260505110426 | 59 | 285 | 0.0 | 3.0 | 0.00 | 0.00 | 0.00 | 38 | 1012.4 |
| 20260505110422 | 59 | 320 | 0.0 | 1.0 | 0.00 | 0.00 | 0.00 | 39 | 1012.4 |
| 20260505101918 | 59 | 214 | 0.0 | 1.0 | 0.00 | 0.00 | 0.00 | 36 | 1012.6 |
| 20260505101425 | 59 | 279 | 0.0 | 2.0 | 0.00 | 0.00 | 0.00 | 36 | 1012.5 |
| 20260505101418 | 59 | 213 | 0.0 | 1.0 | 0.00 | 0.00 | 0.00 | 36 | 1012.5 |
| 20260505100420 | 60 | 319 | 0.0 | 3.0 | 0.00 | 0.00 | 0.00 | 35 | 1012.3 |
| 20260505095924 | 59 | 261 | 0.0 | 3.0 | 0.00 | 0.00 | 0.00 | 35 | 1012.3 |
| 20260505095918 | 59 | 270 | 0.0 | 3.0 | 0.00 | 0.00 | 0.00 | 35 | 1012.3 |
| 20260505094918 | 59 | 293 | 0.0 | 1.0 | 0.00 | 0.00 | 0.00 | 36 | 1012.3 |
| 20260505094421 | 59 | 288 | 0.0 | 1.0 | 0.00 | 0.00 | 0.00 | 36 | 1012.4 |
| 20260505094416 | 59 | 288 | 0.0 | 1.0 | 0.00 | 0.00 | 0.00 | 36 | 1012.3 |
| 20260505094046 | 59 | 288 | 0.0 | 1.0 | 0.00 | 0.00 | 0.00 | 35 | 1012.3 |
| 20260505094040 | 59 | 288 | 0.0 | 0.0 | 0.00 | 0.00 | 0.00 | 36 | 1012.3 |
| 20260505092416 | 60 | 288 | 0.0 | 1.0 | 0.00 | 0.00 | 0.00 | 35 | 1012.3 |
| 20260505091917 | 60 | 288 | 0.0 | 0.0 | 0.00 | 0.00 | 0.00 | 34 | 1012.4 |
| 20260505091419 | 60 | 288 | 0.0 | 0.0 | 0.00 | 0.00 | 0.00 | 35 | 1012.4 |
| 20260505090922 | 60 | 315 | 0.0 | 1.0 | 0.00 | 0.00 | 0.00 | 35 | 1012.4 |
| 20260505090916 | 60 | 315 | 0.0 | 1.0 | 0.00 | 0.00 | 0.00 | 35 | 1012.5 |
| 20260505085915 | 60 | 248 | 0.0 | 1.0 | 0.00 | 0.00 | 0.00 | 35 | 1012.6 |
| 20260505085416 | 60 | 222 | 0.0 | 1.0 | 0.00 | 0.00 | 0.00 | 35 | 1012.7 |
| 20260505084918 | 60 | 217 | 0.0 | 1.0 | 0.00 | 0.00 | 0.00 | 34 | 1012.7 |
| 20260505084912 | 61 | 217 | 0.0 | 3.0 | 0.00 | 0.00 | 0.00 | 34 | 1012.7 |
| 20260505083919 | 61 | 149 | 0.0 | 2.0 | 0.00 | 0.00 | 0.00 | 33 | 1013.0 |
| 20260505083912 | 61 | 213 | 0.0 | 3.0 | 0.00 | 0.00 | 0.00 | 33 | 1013.0 |
| 20260505082917 | 62 | 284 | 1.0 | 3.0 | 0.00 | 0.00 | 0.00 | 32 | 1013.0 |
| 20260505082911 | 62 | 225 | 0.0 | 3.0 | 0.00 | 0.00 | 0.00 | 32 | 1013.1 |
| 20260505081911 | 62 | 259 | 1.0 | 4.0 | 0.00 | 0.00 | 0.00 | 32 | 1012.8 |
| 20260505081414 | 62 | 257 | 1.0 | 6.0 | 0.00 | 0.00 | 0.00 | 32 | 1012.7 |
| 20260505080910 | 62 | 175 | 1.0 | 7.0 | 0.00 | 0.00 | 0.00 | 31 | 1012.7 |
| 20260505080417 | 62 | 280 | 1.0 | 6.0 | 0.00 | 0.00 | 0.00 | 31 | 1012.8 |
| 20260505080409 | 62 | 8 | 1.0 | 7.0 | 0.00 | 0.00 | 0.00 | 31 | 1012.7 |
| 20260505080036 | 62 | 275 | 1.0 | 5.0 | 0.00 | 0.00 | 0.00 | 32 | 1013.0 |
| 20260505074911 | 63 | 220 | 1.0 | 8.0 | 0.00 | 0.00 | 0.00 | 32 | 1013.0 |
| 20260505074412 | 63 | 124 | 2.0 | 8.0 | 0.00 | 0.00 | 0.00 | 32 | 1012.8 |
| 20260505073911 | 63 | 284 | 2.0 | 8.0 | 0.00 | 0.00 | 0.00 | 31 | 1012.8 |
| 20260505073411 | 63 | 202 | 2.0 | 9.0 | 0.00 | 0.00 | 0.00 | 31 | 1012.8 |
| 20260505072916 | 63 | 207 | 2.0 | 7.0 | 0.00 | 0.00 | 0.00 | 31 | 1012.8 |
| 20260505072911 | 63 | 340 | 2.0 | 9.0 | 0.00 | 0.00 | 0.00 | 31 | 1012.7 |
| 20260505071908 | 64 | 246 | 2.0 | 7.0 | 0.00 | 0.00 | 0.00 | 31 | 1012.8 |
| 20260505071408 | 64 | 317 | 1.0 | 11.0 | 0.00 | 0.00 | 0.00 | 31 | 1012.8 |
| 20260505070907 | 64 | 240 | 2.0 | 11.0 | 0.00 | 0.00 | 0.00 | 31 | 1012.8 |
| 20260505070407 | 64 | 170 | 2.0 | 10.0 | 0.00 | 0.00 | 0.00 | 31 | 1012.8 |
| 20260505065905 | 64 | 46 | 3.0 | 11.0 | 0.00 | 0.00 | 0.00 | 30 | 1012.6 |
| 20260505065413 | 64 | 171 | 3.0 | 12.0 | 0.00 | 0.00 | 0.00 | 30 | 1012.5 |
| 20260505065408 | 64 | 258 | 3.0 | 11.0 | 0.00 | 0.00 | 0.00 | 30 | 1012.6 |
| 20260505065029 | 65 | 238 | 3.0 | 12.0 | 0.00 | 0.00 | 0.00 | 29 | 1012.5 |
| 20260505063906 | 65 | 284 | 3.0 | 10.0 | 0.00 | 0.00 | 0.00 | 29 | 1012.4 |
| 20260505063407 | 65 | 225 | 3.0 | 10.0 | 0.00 | 0.00 | 0.00 | 28 | 1012.4 |
| 20260505062903 | 65 | 270 | 2.0 | 8.0 | 0.00 | 0.00 | 0.00 | 28 | 1012.3 |
| 20260505062404 | 65 | 326 | 2.0 | 8.0 | 0.00 | 0.00 | 0.00 | 28 | 1012.0 |
| 20260505061904 | 65 | 173 | 1.0 | 8.0 | 0.00 | 0.00 | 0.00 | 28 | 1012.3 |
| 20260505061405 | 65 | 329 | 1.0 | 5.0 | 0.00 | 0.00 | 0.00 | 28 | 1012.4 |
| 20260505060904 | 65 | 329 | 2.0 | 5.0 | 0.00 | 0.00 | 0.00 | 27 | 1012.3 |
| 20260505060402 | 65 | 271 | 1.0 | 8.0 | 0.00 | 0.00 | 0.00 | 27 | 1012.5 |
| 20260505055902 | 65 | 277 | 1.0 | 8.0 | 0.00 | 0.00 | 0.00 | 27 | 1012.4 |
| 20260505055402 | 66 | 300 | 1.0 | 7.0 | 0.00 | 0.00 | 0.00 | 27 | 1012.5 |
| 20260505054903 | 66 | 279 | 2.0 | 7.0 | 0.00 | 0.00 | 0.00 | 27 | 1012.4 |
| 20260505054402 | 66 | 323 | 2.0 | 8.0 | 0.00 | 0.00 | 0.00 | 27 | 1012.4 |
| 20260505053904 | 66 | 269 | 2.0 | 8.0 | 0.00 | 0.00 | 0.00 | 26 | 1012.4 |
| 20260505053401 | 66 | 306 | 2.0 | 6.0 | 0.00 | 0.00 | 0.00 | 26 | 1012.3 |
| 20260505052908 | 67 | 248 | 2.0 | 8.0 | 0.00 | 0.00 | 0.00 | 25 | 1012.3 |
| 20260505052903 | 67 | 246 | 2.0 | 8.0 | 0.00 | 0.00 | 0.00 | 26 | 1012.3 |
| 20260505051859 | 67 | 285 | 1.0 | 5.0 | 0.00 | 0.00 | 0.00 | 25 | 1012.1 |
| 20260505051400 | 67 | 226 | 1.0 | 5.0 | 0.00 | 0.00 | 0.00 | 25 | 1012.1 |
| 20260505050901 | 67 | 270 | 1.0 | 6.0 | 0.00 | 0.00 | 0.00 | 25 | 1012.1 |
| 20260505050359 | 67 | 68 | 2.0 | 6.0 | 0.00 | 0.00 | 0.00 | 25 | 1012.0 |
| 20260505041350 | 68 | 266 | 0.0 | 4.0 | 0.00 | 0.00 | 0.00 | 25 | 1011.9 |
| 20260505040849 | 68 | 110 | 1.0 | 5.0 | 0.00 | 0.00 | 0.00 | 25 | 1011.8 |
| 20260505040349 | 68 | 227 | 1.0 | 5.0 | 0.00 | 0.00 | 0.00 | 25 | 1011.9 |
| 20260505035851 | 68 | 227 | 0.0 | 3.0 | 0.00 | 0.00 | 0.00 | 25 | 1011.9 |
| 20260505035354 | 68 | 269 | 0.0 | 2.0 | 0.00 | 0.00 | 0.00 | 25 | 1011.9 |
| 20260505035348 | 69 | 295 | 0.0 | 4.0 | 0.00 | 0.00 | 0.00 | 25 | 1011.8 |
| 20260505034347 | 69 | 241 | 1.0 | 5.0 | 0.00 | 0.00 | 0.00 | 25 | 1011.8 |
| 20260505033853 | 69 | 245 | 0.0 | 4.0 | 0.00 | 0.00 | 0.00 | 24 | 1011.6 |
| 20260505033849 | 69 | 279 | 0.0 | 5.0 | 0.00 | 0.00 | 0.00 | 24 | 1011.6 |
| 20260505032846 | 69 | 277 | 0.0 | 4.0 | 0.00 | 0.00 | 0.00 | 24 | 1011.4 |
| 20260505032347 | 70 | 276 | 1.0 | 6.0 | 0.00 | 0.00 | 0.00 | 23 | 1011.3 |
| 20260505031852 | 70 | 293 | 2.0 | 8.0 | 0.00 | 0.00 | 0.00 | 23 | 1011.2 |
| 20260505031848 | 70 | 282 | 2.0 | 6.0 | 0.00 | 0.00 | 0.00 | 23 | 1011.3 |
| 20260505030854 | 70 | 149 | 2.0 | 8.0 | 0.00 | 0.00 | 0.00 | 23 | 1011.1 |
| 20260505030848 | 70 | 299 | 2.0 | 8.0 | 0.00 | 0.00 | 0.00 | 23 | 1011.3 |
| 20260505025849 | 70 | 304 | 3.0 | 7.0 | 0.00 | 0.00 | 0.00 | 23 | 1011.0 |
| 20260505025348 | 70 | 278 | 3.0 | 7.0 | 0.00 | 0.00 | 0.00 | 22 | 1011.0 |
| 20260505024847 | 70 | 251 | 3.0 | 8.0 | 0.00 | 0.00 | 0.00 | 22 | 1011.0 |
| 20260505024350 | 71 | 262 | 3.0 | 8.0 | 0.00 | 0.00 | 0.00 | 22 | 1011.0 |
| 20260505023850 | 71 | 315 | 3.0 | 10.0 | 0.00 | 0.00 | 0.00 | 22 | 1010.9 |
| 20260505023349 | 71 | 272 | 2.0 | 10.0 | 0.00 | 0.00 | 0.00 | 22 | 1010.9 |
| 20260505022847 | 71 | 285 | 2.0 | 6.0 | 0.00 | 0.00 | 0.00 | 21 | 1010.7 |
| 20260505022348 | 71 | 284 | 3.0 | 8.0 | 0.00 | 0.00 | 0.00 | 21 | 1010.7 |
| 20260505021845 | 71 | 281 | 3.0 | 8.0 | 0.00 | 0.00 | 0.00 | 21 | 1010.7 |
| 20260505021345 | 72 | 311 | 3.0 | 9.0 | 0.00 | 0.00 | 0.00 | 20 | 1010.7 |
| 20260505020852 | 72 | 283 | 4.0 | 10.0 | 0.00 | 0.00 | 0.00 | 20 | 1010.5 |
| 20260505020845 | 72 | 273 | 3.0 | 13.0 | 0.00 | 0.00 | 0.00 | 20 | 1010.6 |
| 20260505020513 | 72 | 262 | 2.0 | 6.0 | 0.00 | 0.00 | 0.00 | 20 | 1010.4 |
| 20260505020345 | 72 | 292 | 3.0 | 13.0 | 0.00 | 0.00 | 0.00 | 20 | 1010.5 |
| 20260505015345 | 72 | 261 | 3.0 | 8.0 | 0.00 | 0.00 | 0.00 | 20 | 1010.4 |
| 20260505014345 | 72 | 299 | 2.0 | 10.0 | 0.00 | 0.00 | 0.00 | 20 | 1010.3 |
| 20260505013846 | 72 | 263 | 2.0 | 10.0 | 0.00 | 0.00 | 0.00 | 20 | 1010.3 |
| 20260505013345 | 73 | 285 | 2.0 | 6.0 | 0.00 | 0.00 | 0.00 | 21 | 1010.2 |
| 20260505012844 | 73 | 297 | 2.0 | 11.0 | 0.00 | 0.00 | 0.00 | 21 | 1010.0 |
| 20260505012344 | 73 | 299 | 2.0 | 11.0 | 0.00 | 0.00 | 0.00 | 20 | 1009.9 |
| 20260505011844 | 73 | 296 | 2.0 | 6.0 | 0.00 | 0.00 | 0.00 | 21 | 1009.9 |
| 20260505011345 | 73 | 295 | 2.0 | 8.0 | 0.00 | 0.00 | 0.00 | 20 | 1009.8 |
| 20260505010844 | 73 | 283 | 2.0 | 8.0 | 0.00 | 0.00 | 0.00 | 20 | 1009.9 |
| 20260505010345 | 73 | 285 | 2.0 | 6.0 | 0.00 | 0.00 | 0.00 | 19 | 1009.9 |
| 20260505005845 | 73 | 283 | 2.0 | 7.0 | 0.00 | 0.00 | 0.00 | 19 | 1009.8 |
| 20260505005344 | 73 | 307 | 3.0 | 7.0 | 0.00 | 0.00 | 0.00 | 19 | 1009.9 |
| 20260505004843 | 73 | 314 | 2.0 | 7.0 | 0.00 | 0.00 | 0.00 | 19 | 1009.9 |
| 20260505004347 | 73 | 312 | 1.0 | 7.0 | 0.00 | 0.00 | 0.00 | 19 | 1009.8 |
| 20260505004341 | 74 | 278 | 1.0 | 7.0 | 0.00 | 0.00 | 0.00 | 19 | 1009.9 |
| 20260505004007 | 74 | 206 | 2.0 | 8.0 | 0.00 | 0.00 | 0.00 | 19 | 1010.0 |
| 20260505002842 | 74 | 248 | 2.0 | 8.0 | 0.00 | 0.00 | 0.00 | 19 | 1009.9 |
| 20260505002342 | 74 | 302 | 2.0 | 7.0 | 0.00 | 0.00 | 0.00 | 18 | 1010.0 |